This is the latest recevied weather packets stored in our database for station/object EA5CEE. If no packets are shown the sender has not sent any weather packets the latest 1 day(s).
| Time | Temp. | Humidity | Pressure | Rain* | Wind** | Luminosity | Snow |
|---|---|---|---|---|---|---|---|
| 1778089550 | 17.78° C | 84% | 1009.6 hPa | 0 mm | - | - | - |
| 1778088676 | 17.78° C | 85% | 1009.4 hPa | 0 mm | - | - | - |
| 1778087748 | 17.78° C | 85% | 1009.5 hPa | 0 mm | - | - | - |
| 1778085946 | 18.33° C | 83% | 1009.3 hPa | 0 mm | - | - | - |
| 1778085054 | 18.33° C | 82% | 1009.2 hPa | 0 mm | - | - | - |
| 1778082361 | 18.33° C | 82% | 1009.2 hPa | 0 mm | - | - | - |
| 1778081441 | 18.33° C | 82% | 1009.3 hPa | 0 mm | - | - | - |
| 1778080539 | 18.33° C | 81% | 1009.3 hPa | 0 mm | - | - | - |
| 1778079638 | 18.33° C | 79% | 1009.4 hPa | 0 mm | - | - | - |
| 1778076037 | 18.33° C | 80% | 1010 hPa | 0 mm | - | - | - |
| 1778073334 | 18.89° C | 80% | 1010 hPa | 0 mm | - | - | - |
| 1778069732 | 18.33° C | 82% | 1010.3 hPa | 0 mm | - | - | - |
| 1778068830 | 18.33° C | 82% | 1010.3 hPa | 0 mm | - | - | - |
| 1778066126 | 18.89° C | 80% | 1010.4 hPa | 0 mm | - | - | - |
| 1778062518 | 18.33° C | 79% | 1010.6 hPa | 0 mm | - | - | - |
| 1778061615 | 18.89° C | 79% | 1010.6 hPa | 0 mm | - | - | - |
| 1778060714 | 18.89° C | 80% | 1010.6 hPa | 0 mm | - | - | - |
| 1778059814 | 18.89° C | 78% | 1010.5 hPa | 0 mm | - | - | - |
| 1778058910 | 18.89° C | 77% | 1010.3 hPa | 0 mm | - | - | - |
| 1778057107 | 18.89° C | 75% | 1010.2 hPa | 0 mm | - | - | - |
| 1778056209 | 18.89° C | 77% | 1010.1 hPa | 0 mm | - | - | - |
| 1778055309 | 18.33° C | 76% | 1010.1 hPa | 0 mm | - | - | - |
| 1778051782 | 18.33° C | 82% | 1010.1 hPa | 0 mm | - | - | - |
| 1778050859 | 18.33° C | 82% | 1010.2 hPa | 0 mm | - | - | - |
| 1778049054 | 17.22° C | 84% | 1010.2 hPa | 0 mm | - | - | - |
* Rain latest hour (hover to see other rain measurements)
** Current wind speed in m/s (hover to see current wind gust speed)